Observations
| Time | Sensor | AQI | SAQ | Temp °C | Hum % | Pres Pa | CO μg/m³ | H₂S μg/m³ | NO μg/m³ | NO₂ μg/m³ | O₃ μg/m³ | SO₂ μg/m³ | CO₂e PPM | VOC PPM | PM1 μg/m³ | PM2.5 μg/m³ | PM4 μg/m³ | PM10 μg/m³ | TPS µm |
|---|---|---|---|---|---|---|---|---|---|---|---|---|---|---|---|---|---|---|---|
| Wednesday 12 August 2026 | |||||||||||||||||||
| 12:19 | Trim Market St | 2 | 35.1 | 33 | 66,495 | 0 | 0 | 0.25 | 12.38 | 102.67 | 0 | 1.43 | 5.33 | 5.86 | |||||
| 12:18 | Trim Market St | 2 | 34.8 | 33 | 66,469 | 0 | 0 | 0.24 | 11.95 | 91.28 | 0 | 1.43 | 4.24 | 4.66 | |||||
| 12:18 | Trim Patrick St | 2 | 31.6 | 42 | 69,379 | 0 | 0 | 0.62 | 11.15 | 76.57 | 14.26 | 3.71 | 8.44 | 9.29 | |||||
| 12:17 | Trim Market St | 2 | 34.6 | 34 | 66,445 | 0 | 0 | 0.24 | 12.29 | 92.4 | 0 | 1.43 | 4.77 | 5.25 | |||||
| 12:16 | Trim Market St | 2 | 34.4 | 34 | 66,447 | 0 | 0 | 0.27 | 12.29 | 98.37 | 0 | 1.43 | 4.76 | 5 | |||||
| 12:15 | Trim Market St | 2 | 34.2 | 34 | 66,429 | 0 | 0 | 0.23 | 12.28 | 110.76 | 0 | 1.43 | 4.21 | 4.63 | |||||
| 12:14 | Trim Patrick St | 2 | 31.1 | 42 | 69,373 | 0 | 0 | 0.67 | 11.98 | 110.44 | 13.13 | 4.57 | 9.28 | 10.21 | |||||
| 12:14 | Trim Market St | 2 | 34 | 34 | 66,408 | 0 | 0 | 0.31 | 12.27 | 114.7 | 0 | 2.85 | 6.37 | 6.68 | |||||
| 12:13 | Trim Patrick St | 2 | 31 | 43 | 69,361 | 0 | 0 | 0.69 | 9.6 | 81.58 | 12.21 | 3.71 | 10 | 11 | |||||
| 12:13 | Trim Market St | 2 | 33.9 | 34 | 66,410 | 0 | 0 | 0.31 | 12.29 | 115.9 | 0 | 1.43 | 4.23 | 5 | |||||
| 12:12 | Trim Patrick St | 2 | 30.9 | 42 | 69,343 | 0 | 0 | 0.68 | 10.98 | 99.62 | 12.1 | 4.57 | 10.06 | 11.07 | |||||
| 12:12 | Trim Market St | 2 | 33.9 | 34 | 66,412 | 0 | 0 | 0.31 | 10.26 | 82.79 | 0 | 2.85 | 5.84 | 5.84 | |||||
| 12:11 | Trim Patrick St | 2 | 30.9 | 42 | 69,320 | 0 | 0 | 0.69 | 9.63 | 84.97 | 12.68 | 3.71 | 9.24 | 10.16 | |||||
| 12:11 | Trim Market St | 2 | 33.9 | 34 | 66,416 | 0 | 0 | 0.3 | 12.57 | 118.17 | 0 | 1.43 | 4.76 | 5.24 | |||||
| 12:10 | Trim Patrick St | 2 | 30.8 | 41 | 69,324 | 0 | 0 | 0.71 | 8.37 | 81.67 | 13.09 | 2.86 | 9.34 | 10.28 | |||||
| 12:10 | Trim Market St | 2 | 34 | 34 | 66,423 | 0 | 0 | 0.38 | 7.46 | 70.83 | 0 | 1.43 | 4.76 | 5 | |||||
| 12:09 | Trim Patrick St | 2 | 30.9 | 40 | 69,326 | 0 | 0 | 0.7 | 11.93 | 96.19 | 13.11 | 3.71 | 9.37 | 10.31 | |||||
| 12:09 | Trim Market St | 2 | 34 | 34 | 66,410 | 0 | 0 | 0.37 | 12.26 | 98.19 | 0 | 1.43 | 4.76 | 5 | |||||
| 12:08 | Trim Patrick St | 2 | 30.9 | 41 | 69,330 | 0 | 0 | 0.69 | 8.99 | 91.27 | 12.85 | 5.43 | 10.12 | 11.13 | |||||
| 12:08 | Trim Market St | 2 | 34.1 | 34 | 66,412 | 0 | 0 | 0.39 | 12.29 | 92.91 | 0 | 2.14 | 4.76 | 5.24 | |||||